Theta_e
319 319 321 324 329 329 330 329 329 329 329 328 327 327 328 327 326 326 327 327 327 327 327 326 325 325 325 325 324 323 324 325 325 325 325 325 323 320
317 321 320 322 323 327 329 329 329 329 328 327 327 326 325 325 325 326 327 328 327 327 327 327 327 326 325 325 325 324 323 324 324 323 325 325 324 324
319 321 320 320 321 322 327 327 328 328 329 329 328 328 328 327 328 328 328 328 327 328 326 325 327 327 327 326 326 325 325 324 323 323 323 323 324 323
319 320 321 321 321 322 326 327 327 326 327 329 329 329 329 328 328 328 327 326 328 327 323 323 324 326 327 327 327 326 325 324 323 323 324 323 322 323
315 318 319 319 320 320 325 327 326 326 326 326 327 328 328 328 329 328 328 327 324 323 324 323 326 325 325 324 324 325 325 325 325 323 323 324 324 324
304 312 316 318 320 321 322 323 325 326 325 325 326 327 327 328 328 327 327 327 326 325 324 323 323 323 323 323 324 324 324 325 325 325 324 324 324 324
294 297 303 306 311 314 318 319 322 321 322 325 325 324 324 325 324 324 323 324 323 322 324 325 324 324 325 324 323 324 324 324 325 325 325 325 324 324
290 293 296 300 303 306 307 309 310 309 314 314 313 310 310 314 314 313 315 320 321 321 322 324 324 324 323 323 322 323 323 323 325 325 325 325 325 325
293 291 294 294 297 300 301 304 305 305 304 303 302 303 302 304 309 308 304 311 311 312 312 317 317 320 319 320 321 320 319 321 323 324 325 325 324 323
288 288 292 293 293 296 298 300 301 302 303 301 302 300 301 300 300 302 302 305 309 308 307 312 311 312 311 314 316 317 318 318 319 320 321 321 320 320
284 284 285 285 286 291 294 294 295 296 295 296 295 296 297 298 299 300 302 301 301 301 302 304 305 307 308 309 310 312 313 314 315 316 315 317 319 320
282 282 281 281 282 283 285 286 287 289 291 292 293 293 294 295 296 297 296 296 295 295 297 296 297 298 301 303 304 305 306 306 307 309 309 309 312 313
280 280 279 279 279 280 281 282 283 283 284 285 287 289 289 290 290 290 291 291 291 291 291 292 293 293 294 295 299 299 300 301 302 303 304 306 307 307
277 277 277 277 278 279 280 279 280 281 281 282 283 283 283 284 285 286 287 288 289 289 289 290 290 290 290 292 294 296 297 298 299 300 300 300 301 302
276 276 276 277 277 278 278 278 278 279 279 279 279 279 280 280 281 282 283 284 286 286 287 287 287 288 288 288 288 292 292 294 295 296 295 295 296 297
276 276 276 276 276 276 277 277 277 277 277 277 277 277 278 278 279 279 280 281 281 282 283 284 284 285 286 286 286 288 290 291 292 292 293 293 292 292
274 275 275 275 275 275 275 275 275 275 275 275 276 276 277 277 277 277 277 278 279 279 280 281 281 282 284 285 285 285 286 287 288 289 289 289 289 290
272 272 271 270 271 271 272 272 272 273 273 273 273 274 274 275 275 275 275 276 277 277 278 279 279 281 282 283 284 284 284 284 285 286 286 286 286 287
272 271 270 270 269 269 269 269 269 270 270 271 271 271 272 273 273 273 274 274 275 276 277 278 279 279 280 282 282 282 282 283 283 283 284 284 284 285
271 271 270 270 269 269 269 269 269 269 269 270 270 270 270 271 271 271 271 272 273 274 275 276 277 278 277 279 279 279 281 281 282 282 283 283 284 284
271 271 270 270 269 268 269 268 268 268 268 268 269 269 269 269 270 269 269 271 272 273 274 275 275 276 277 278 279 280 279 280 281 282 282 282 282 282
270 270 270 270 269 269 269 269 268 268 267 267 267 268 268 268 268 268 268 269 270 271 272 273 274 275 276 278 279 279 279 279 280 281 281 282 282 283
270 270 270 270 269 269 269 269 268 268 268 268 267 267 267 266 266 266 267 268 269 269 271 272 273 275 276 277 277 277 277 278 279 279 280 281 281 282
Wind_Speed
34 43 45 41 31 41 49 43 36 21 27 33 31 35 41 42 39 35 33 32 30 28 29 30 29 29 29 30 30 31 33 34 33 34 33 32 35 32
24 43 48 32 38 36 44 45 45 37 29 34 35 27 23 25 29 32 34 32 30 30 30 32 33 32 31 30 30 31 32 34 34 34 34 34 35 33
31 40 43 50 43 28 45 42 45 43 35 30 27 28 27 27 26 26 28 33 34 31 29 33 36 37 34 32 31 31 31 33 34 36 35 35 35 36
26 31 33 34 34 36 34 37 37 41 41 38 35 32 30 29 29 29 30 30 32 31 29 30 31 38 37 34 33 33 32 32 33 35 36 35 35 36
20 20 27 31 33 27 18 26 30 34 36 38 33 33 30 30 29 30 30 30 30 27 25 25 24 25 27 28 29 31 34 36 36 36 36 36 36 39
25 13 10 12 15 20 30 23 27 31 32 31 30 28 25 26 29 28 28 32 34 36 29 29 28 28 31 31 30 32 32 35 39 39 38 37 37 37
36 35 31 27 17 9 9 11 22 28 33 31 19 24 22 21 23 23 28 31 31 32 31 31 30 31 31 29 29 29 33 36 36 39 41 41 40 41
36 38 36 34 30 27 24 20 16 12 8 8 16 11 10 13 6 7 15 21 26 26 25 29 31 29 30 30 29 30 30 30 34 38 41 42 42 41
38 36 41 34 31 27 24 20 19 17 19 17 16 14 9 7 2 3 6 7 11 19 17 18 19 20 22 26 27 28 29 30 31 35 37 38 41 41
36 36 34 33 30 25 23 21 18 16 15 14 13 14 13 10 9 5 9 8 9 12 14 16 17 16 18 20 25 27 28 28 29 31 32 32 33 36
35 35 35 32 26 21 18 20 17 18 17 14 13 10 9 7 7 6 6 8 4 10 11 13 17 20 18 19 20 24 27 30 31 32 33 34 37 40
33 33 33 30 28 25 24 21 18 19 13 10 8 7 8 9 8 9 9 7 8 5 6 10 8 11 7 13 14 15 17 20 22 25 27 27 33 36
34 34 33 32 29 26 23 23 22 18 16 14 12 10 9 10 11 11 10 11 10 8 12 12 10 12 10 16 19 19 18 20 22 25 28 30 31 33
33 29 26 24 24 23 22 22 18 16 14 14 13 13 14 14 14 13 12 10 10 11 13 15 14 15 17 20 22 21 22 21 21 21 22 24 25 26
30 27 23 22 20 21 21 19 18 18 18 18 19 17 16 15 15 12 11 11 11 11 15 16 16 16 16 17 20 24 26 24 21 17 16 20 20 21
28 27 25 24 23 22 21 21 21 21 22 20 19 17 16 15 16 16 15 14 13 11 11 14 17 18 18 18 19 21 21 18 22 22 21 20 19 18
26 23 23 23 24 26 27 26 24 22 22 21 20 19 19 18 17 16 16 16 15 15 16 16 16 16 17 17 18 16 17 18 18 18 17 16 17 16
26 27 27 25 25 27 28 27 27 26 24 22 21 19 19 18 18 16 14 15 15 15 16 17 17 18 13 15 17 15 16 15 16 15 14 13 12 13
25 24 25 26 24 22 25 27 28 28 25 24 23 21 19 17 16 15 15 14 15 15 14 13 14 14 14 14 13 17 16 14 13 12 11 11 11 12
20 18 20 23 23 23 26 28 28 28 28 26 24 22 20 17 16 14 14 15 16 16 16 14 12 13 14 13 14 14 17 16 11 11 10 10 11 8
19 17 15 15 16 18 23 25 26 29 29 27 26 24 21 19 16 14 14 15 16 15 17 16 15 14 15 14 15 14 13 13 12 10 10 7 7 6
20 17 16 16 19 22 24 26 28 27 28 28 28 26 23 20 18 16 15 16 16 16 18 19 17 14 12 11 14 15 11 11 10 9 11 11 7 5
19 19 19 18 18 19 22 22 24 27 30 31 30 28 25 20 16 14 15 15 16 17 16 19 18 13 11 10 10 9 10 8 7 3 8 10 9 11
Wind_Direction
239 233 228 238 234 235 234 226 219 207 217 227 233 235 236 238 237 237 236 236 234 236 236 236 238 239 238 237 237 237 242 242 243 246 250 252 252 245
240 231 229 236 232 243 244 234 229 226 226 238 233 233 231 231 232 234 235 235 234 238 240 240 238 239 240 241 241 240 238 241 241 245 249 251 253 252
231 230 237 231 241 258 231 239 237 232 229 236 231 229 235 239 238 237 242 244 241 236 241 244 242 239 238 240 242 243 243 244 243 243 246 249 250 250
231 233 232 226 227 235 247 248 242 240 235 233 234 231 233 239 250 252 253 244 237 234 247 256 248 240 239 238 243 244 248 248 247 247 247 248 248 253
220 212 219 220 221 234 224 221 240 242 237 236 238 241 243 249 248 248 248 239 233 246 256 247 241 232 230 234 240 243 247 248 251 249 248 250 252 252
97 142 178 177 184 197 222 229 238 237 243 235 232 242 241 236 237 237 233 235 244 249 251 245 239 239 242 247 248 246 248 249 245 249 249 252 254 256
81 84 91 92 106 144 183 190 225 251 243 234 229 225 217 215 219 233 231 233 244 249 247 242 241 236 240 247 251 251 252 254 252 248 248 250 252 256
65 75 80 78 75 73 76 86 103 89 164 188 196 163 189 231 233 242 240 235 243 241 237 234 235 240 247 249 252 249 255 254 249 244 243 249 249 249
58 54 64 65 67 72 72 67 68 68 72 71 73 76 77 83 209 275 293 237 245 251 273 244 241 239 244 252 259 265 265 258 253 250 249 245 250 242
56 49 50 50 51 56 61 66 70 72 65 51 48 42 36 31 22 328 332 325 302 288 289 284 269 262 266 265 267 265 265 265 259 255 249 250 252 255
50 50 49 46 46 50 56 60 58 60 52 49 42 34 21 15 354 334 333 349 333 282 281 280 283 285 281 273 268 265 263 262 261 259 259 258 257 260
45 43 42 36 34 37 41 48 50 56 56 59 44 26 15 1 346 350 9 4 345 315 298 332 316 310 291 267 260 265 271 272 273 273 275 276 270 270
41 37 30 22 22 26 31 36 34 25 27 24 21 17 14 5 6 6 5 359 347 331 316 325 314 316 305 289 287 291 289 284 280 277 273 271 269 270
43 38 31 20 16 15 21 24 20 18 20 18 10 7 5 0 3 358 352 343 331 320 318 322 323 325 322 317 311 301 301 301 297 292 288 287 284 279
33 33 27 22 16 15 18 16 13 15 14 11 13 12 10 358 346 341 337 335 327 321 319 322 321 318 313 311 309 314 316 309 304 298 298 296 293 290
22 18 16 17 18 19 18 17 15 11 8 7 6 2 356 352 350 347 340 334 329 316 313 314 311 309 309 309 306 306 308 307 302 298 296 296 295 293
19 17 16 15 14 15 15 15 15 12 9 7 1 354 349 347 347 346 344 342 340 333 326 321 316 308 302 303 303 300 305 304 302 301 296 293 293 293
15 20 20 19 17 16 16 15 12 11 9 5 0 356 350 347 342 344 342 340 338 336 333 329 329 326 321 319 310 305 309 307 304 300 294 291 291 290
11 13 12 12 13 12 12 13 13 12 8 4 360 355 349 344 340 338 337 333 330 328 328 330 332 331 326 316 310 309 310 310 304 296 288 285 285 284
6 4 2 2 3 4 5 6 6 6 5 2 357 352 348 343 337 334 332 330 328 327 325 328 328 323 315 305 302 297 303 303 296 292 287 280 268 271
345 345 346 348 350 352 355 358 0 2 1 359 355 352 346 339 333 327 324 322 325 322 320 320 315 307 306 303 294 303 298 292 285 270 275 252 242 236
326 325 326 330 335 340 346 351 355 350 351 352 353 352 345 337 331 323 322 321 320 319 317 315 318 313 305 297 292 294 293 285 282 273 264 242 232 246
315 313 310 313 321 327 330 334 336 342 345 348 349 346 343 336 326 322 317 316 316 315 314 316 319 312 300 295 296 291 283 278 258 249 258 258 260 256